Year,Month,Day,Hour,Minute,Value (Times are PST for temperature in C)
2015,07,18,00,00,22.30
2015,07,18,00,01,22.40
2015,07,18,00,02,22.40
2015,07,18,00,03,22.40
2015,07,18,00,04,22.40
2015,07,18,00,05,22.40
2015,07,18,00,06,22.40
2015,07,18,00,07,22.40
2015,07,18,00,08,22.40
2015,07,18,00,09,22.40
2015,07,18,00,10,22.40
2015,07,18,00,11,22.40
2015,07,18,00,12,22.40
2015,07,18,00,13,22.40
2015,07,18,00,14,22.40
2015,07,18,00,15,22.30
2015,07,18,00,16,22.30
2015,07,18,00,17,22.30
2015,07,18,00,18,22.30
2015,07,18,00,19,22.30
2015,07,18,00,20,22.30
2015,07,18,00,21,22.30
2015,07,18,00,22,22.30
2015,07,18,00,23,22.30
2015,07,18,00,24,22.30
2015,07,18,00,25,22.30
2015,07,18,00,26,22.30
2015,07,18,00,27,22.30
2015,07,18,00,28,22.30
2015,07,18,00,29,22.30
2015,07,18,00,30,22.30
2015,07,18,00,31,22.20
2015,07,18,00,32,22.20
2015,07,18,00,33,22.20
2015,07,18,00,34,22.20
2015,07,18,00,35,22.20
2015,07,18,00,36,22.20
2015,07,18,00,37,22.20
2015,07,18,00,38,22.20
2015,07,18,00,39,22.20
2015,07,18,00,40,22.20
2015,07,18,00,41,22.20
2015,07,18,00,42,22.20
2015,07,18,00,43,22.20
2015,07,18,00,44,22.20
2015,07,18,00,45,22.20
2015,07,18,00,46,22.30
2015,07,18,00,47,22.30
2015,07,18,00,48,22.30
2015,07,18,00,49,22.30
2015,07,18,00,50,22.30
2015,07,18,00,51,22.30
2015,07,18,00,52,22.30
2015,07,18,00,53,22.30
2015,07,18,00,54,22.30
2015,07,18,00,55,22.20
2015,07,18,00,56,22.20
2015,07,18,00,57,22.20
2015,07,18,00,58,22.20
2015,07,18,00,59,22.20
2015,07,18,01,00,22.10
2015,07,18,01,01,22.10
2015,07,18,01,02,22.10
2015,07,18,01,03,22.00
2015,07,18,01,04,22.00
2015,07,18,01,05,21.90
2015,07,18,01,06,21.90
2015,07,18,01,07,21.90
2015,07,18,01,08,21.80
2015,07,18,01,09,21.80
2015,07,18,01,10,21.80
2015,07,18,01,11,21.70
2015,07,18,01,12,21.70
2015,07,18,01,13,21.70
2015,07,18,01,14,21.70
2015,07,18,01,15,21.60
2015,07,18,01,16,21.60
2015,07,18,01,17,21.60
2015,07,18,01,18,21.60
2015,07,18,01,19,21.50
2015,07,18,01,20,21.50
2015,07,18,01,21,21.40
2015,07,18,01,22,21.40
2015,07,18,01,23,21.40
2015,07,18,01,24,21.30
2015,07,18,01,25,21.30
2015,07,18,01,26,21.30
2015,07,18,01,27,21.30
2015,07,18,01,28,21.30
2015,07,18,01,29,21.30
2015,07,18,01,30,21.30
2015,07,18,01,31,21.30
2015,07,18,01,32,21.30
2015,07,18,01,33,21.30
2015,07,18,01,34,21.30
2015,07,18,01,35,21.30
2015,07,18,01,36,21.20
2015,07,18,01,37,21.20
2015,07,18,01,38,21.20
2015,07,18,01,39,21.20
2015,07,18,01,40,21.20
2015,07,18,01,41,21.20
2015,07,18,01,42,21.20
2015,07,18,01,43,21.10
2015,07,18,01,44,21.10
2015,07,18,01,45,21.10
2015,07,18,01,46,21.10
2015,07,18,01,47,21.10
2015,07,18,01,48,21.10
2015,07,18,01,49,21.10
2015,07,18,01,50,21.10
2015,07,18,01,51,21.10
2015,07,18,01,52,21.10
2015,07,18,01,53,21.00
2015,07,18,01,54,21.00
2015,07,18,01,55,21.00
2015,07,18,01,56,21.00
2015,07,18,01,57,21.00
2015,07,18,01,58,21.10
2015,07,18,01,59,21.10
2015,07,18,02,00,21.20
2015,07,18,02,01,21.20
2015,07,18,02,02,21.20
2015,07,18,02,03,21.20
2015,07,18,02,04,21.20
2015,07,18,02,05,21.20
2015,07,18,02,06,21.20
2015,07,18,02,07,21.20
2015,07,18,02,08,21.20
2015,07,18,02,09,21.20
2015,07,18,02,10,21.20
2015,07,18,02,11,21.10
2015,07,18,02,12,21.10
2015,07,18,02,13,21.10
2015,07,18,02,14,21.10
2015,07,18,02,15,21.00
2015,07,18,02,16,21.00
2015,07,18,02,17,21.00
2015,07,18,02,18,20.90
2015,07,18,02,19,20.90
2015,07,18,02,20,20.90
2015,07,18,02,21,20.90
2015,07,18,02,22,20.90
2015,07,18,02,23,20.80
2015,07,18,02,24,20.80
2015,07,18,02,25,20.80
2015,07,18,02,26,20.80
2015,07,18,02,27,20.90
2015,07,18,02,28,20.90
2015,07,18,02,29,20.90
2015,07,18,02,30,20.90
2015,07,18,02,31,20.90
2015,07,18,02,32,20.90
2015,07,18,02,33,20.90
2015,07,18,02,34,20.90
2015,07,18,02,35,20.90
2015,07,18,02,36,20.90
2015,07,18,02,37,20.90
2015,07,18,02,38,20.90
2015,07,18,02,39,20.90
2015,07,18,02,40,20.90
2015,07,18,02,41,20.90
2015,07,18,02,42,20.80
2015,07,18,02,43,20.80
2015,07,18,02,44,20.90
2015,07,18,02,45,20.90
2015,07,18,02,46,20.90
2015,07,18,02,47,20.90
2015,07,18,02,48,21.00
2015,07,18,02,49,21.00
2015,07,18,02,50,21.00
2015,07,18,02,51,21.00
2015,07,18,02,52,21.00
2015,07,18,02,53,20.90
2015,07,18,02,54,20.90
2015,07,18,02,55,20.90
2015,07,18,02,56,20.90
2015,07,18,02,57,20.90
2015,07,18,02,58,20.80
2015,07,18,02,59,20.80
2015,07,18,03,00,20.80
2015,07,18,03,01,20.80
2015,07,18,03,02,20.80
2015,07,18,03,03,20.80
2015,07,18,03,04,20.90
2015,07,18,03,05,20.90
2015,07,18,03,06,20.90
2015,07,18,03,07,20.90
2015,07,18,03,08,20.90
2015,07,18,03,09,20.90
2015,07,18,03,10,20.90
2015,07,18,03,11,20.90
2015,07,18,03,12,20.90
2015,07,18,03,13,20.90
2015,07,18,03,14,20.90
2015,07,18,03,15,20.90
2015,07,18,03,16,20.80
2015,07,18,03,17,20.80
2015,07,18,03,18,20.80
2015,07,18,03,19,20.70
2015,07,18,03,20,20.70
2015,07,18,03,21,20.70
2015,07,18,03,22,20.70
2015,07,18,03,23,20.60
2015,07,18,03,24,20.60
2015,07,18,03,25,20.50
2015,07,18,03,26,20.50
2015,07,18,03,27,20.40
2015,07,18,03,28,20.40
2015,07,18,03,29,20.40
2015,07,18,03,30,20.30
2015,07,18,03,31,20.30
2015,07,18,03,32,20.30
2015,07,18,03,33,20.20
2015,07,18,03,34,20.20
2015,07,18,03,35,20.20
2015,07,18,03,36,20.20
2015,07,18,03,37,20.10
2015,07,18,03,38,20.10
2015,07,18,03,39,20.10
2015,07,18,03,40,20.00
2015,07,18,03,41,19.90
2015,07,18,03,42,19.90
2015,07,18,03,43,19.90
2015,07,18,03,44,19.80
2015,07,18,03,45,19.80
2015,07,18,03,46,19.80
2015,07,18,03,47,19.70
2015,07,18,03,48,19.70
2015,07,18,03,49,19.60
2015,07,18,03,50,19.60
2015,07,18,03,51,19.50
2015,07,18,03,52,19.50
2015,07,18,03,53,19.50
2015,07,18,03,54,19.40
2015,07,18,03,55,19.40
2015,07,18,03,56,19.40
2015,07,18,03,57,19.40
2015,07,18,03,58,19.40
2015,07,18,03,59,19.40
2015,07,18,04,00,19.40
2015,07,18,04,01,19.40
2015,07,18,04,02,19.40
2015,07,18,04,03,19.40
2015,07,18,04,04,19.40
2015,07,18,04,05,19.40
2015,07,18,04,06,19.40
2015,07,18,04,07,19.40
2015,07,18,04,08,19.40
2015,07,18,04,09,19.40
2015,07,18,04,10,19.40
2015,07,18,04,11,19.40
2015,07,18,04,12,19.40
2015,07,18,04,13,19.40
2015,07,18,04,14,19.40
2015,07,18,04,15,19.40
2015,07,18,04,16,19.40
2015,07,18,04,17,19.40
2015,07,18,04,18,19.40
2015,07,18,04,19,19.40
2015,07,18,04,20,19.40
2015,07,18,04,21,19.30
2015,07,18,04,22,19.30
2015,07,18,04,23,19.30
2015,07,18,04,24,19.30
2015,07,18,04,25,19.30
2015,07,18,04,26,19.30
2015,07,18,04,27,19.30
2015,07,18,04,28,19.30
2015,07,18,04,29,19.30
2015,07,18,04,30,19.30
2015,07,18,04,31,19.30
2015,07,18,04,32,19.30
2015,07,18,04,33,19.30
2015,07,18,04,34,19.30
2015,07,18,04,35,19.30
2015,07,18,04,36,19.30
2015,07,18,04,37,19.30
2015,07,18,04,38,19.30
2015,07,18,04,39,19.30
2015,07,18,04,40,19.30
2015,07,18,04,41,19.20
2015,07,18,04,42,19.20
2015,07,18,04,43,19.20
2015,07,18,04,44,19.20
2015,07,18,04,45,19.10
2015,07,18,04,46,19.10
2015,07,18,04,47,19.10
2015,07,18,04,48,19.10
2015,07,18,04,49,19.10
2015,07,18,04,50,19.00
2015,07,18,04,51,19.00
2015,07,18,04,52,19.00
2015,07,18,04,53,18.90
2015,07,18,04,54,18.90
2015,07,18,04,55,18.90
2015,07,18,04,56,18.80
2015,07,18,04,57,18.80
2015,07,18,04,58,18.80
2015,07,18,04,59,18.70
2015,07,18,05,00,18.70
2015,07,18,05,01,18.70
2015,07,18,05,02,18.70
2015,07,18,05,03,18.70
2015,07,18,05,04,18.70
2015,07,18,05,05,18.70
2015,07,18,05,06,18.60
2015,07,18,05,07,18.60
2015,07,18,05,08,18.60
2015,07,18,05,09,18.60
2015,07,18,05,10,18.60
2015,07,18,05,11,18.60
2015,07,18,05,12,18.60
2015,07,18,05,13,18.60
2015,07,18,05,14,18.60
2015,07,18,05,15,18.60
2015,07,18,05,16,18.60
2015,07,18,05,17,18.60
2015,07,18,05,18,18.60
2015,07,18,05,19,18.60
2015,07,18,05,20,18.60
2015,07,18,05,21,18.60
2015,07,18,05,22,18.50
2015,07,18,05,23,18.50
2015,07,18,05,24,18.50
2015,07,18,05,25,18.50
2015,07,18,05,26,18.50
2015,07,18,05,27,18.60
2015,07,18,05,28,18.60
2015,07,18,05,29,18.60
2015,07,18,05,30,18.60
2015,07,18,05,31,18.60
2015,07,18,05,32,18.60
2015,07,18,05,33,18.60
2015,07,18,05,34,18.60
2015,07,18,05,35,18.60
2015,07,18,05,36,18.60
2015,07,18,05,37,18.60
2015,07,18,05,38,18.60
2015,07,18,05,39,18.50
2015,07,18,05,40,18.50
2015,07,18,05,41,18.50
2015,07,18,05,42,18.50
2015,07,18,05,43,18.50
2015,07,18,05,44,18.50
2015,07,18,05,45,18.40
2015,07,18,05,46,18.50
2015,07,18,05,47,18.50
2015,07,18,05,48,18.50
2015,07,18,05,49,18.50
2015,07,18,05,50,18.50
2015,07,18,05,51,18.50
2015,07,18,05,52,18.50
2015,07,18,05,53,18.60
2015,07,18,05,54,18.60
2015,07,18,05,55,18.60
2015,07,18,05,56,18.60
2015,07,18,05,57,18.60
2015,07,18,05,58,18.60
2015,07,18,05,59,18.60
2015,07,18,06,00,18.60
2015,07,18,06,01,18.60
2015,07,18,06,02,18.60
2015,07,18,06,03,18.60
2015,07,18,06,04,18.60
2015,07,18,06,05,18.60
2015,07,18,06,06,18.60
2015,07,18,06,07,18.70
2015,07,18,06,08,18.70
2015,07,18,06,09,18.70
2015,07,18,06,10,18.70
2015,07,18,06,11,18.70
2015,07,18,06,12,18.70
2015,07,18,06,13,18.70
2015,07,18,06,14,18.80
2015,07,18,06,15,18.80
2015,07,18,06,16,18.80
2015,07,18,06,17,18.80
2015,07,18,06,18,18.80
2015,07,18,06,19,18.80
2015,07,18,06,20,18.80
2015,07,18,06,21,18.80
2015,07,18,06,22,18.70
2015,07,18,06,23,18.80
2015,07,18,06,24,18.80
2015,07,18,06,25,18.80
2015,07,18,06,26,18.80
2015,07,18,06,27,18.80
2015,07,18,06,28,18.80
2015,07,18,06,29,18.80
2015,07,18,06,30,18.80
2015,07,18,06,31,18.80
2015,07,18,06,32,18.80
2015,07,18,06,33,18.90
2015,07,18,06,34,18.90
2015,07,18,06,35,18.90
2015,07,18,06,36,18.90
2015,07,18,06,37,18.90
2015,07,18,06,38,18.90
2015,07,18,06,39,18.90
2015,07,18,06,40,19.00
2015,07,18,06,41,19.00
2015,07,18,06,42,19.00
2015,07,18,06,43,19.00
2015,07,18,06,44,19.10
2015,07,18,06,45,19.10
2015,07,18,06,46,19.10
2015,07,18,06,47,19.10
2015,07,18,06,48,19.10
2015,07,18,06,49,19.10
2015,07,18,06,50,19.20
2015,07,18,06,51,19.20
2015,07,18,06,52,19.20
2015,07,18,06,53,19.20
2015,07,18,06,54,19.20
2015,07,18,06,55,19.20
2015,07,18,06,56,19.20
2015,07,18,06,57,19.20
2015,07,18,06,58,19.20
2015,07,18,06,59,19.20
2015,07,18,07,00,19.20
2015,07,18,07,01,19.20
2015,07,18,07,02,19.20
2015,07,18,07,03,19.20
2015,07,18,07,04,19.20
2015,07,18,07,05,19.30
2015,07,18,07,06,19.30
2015,07,18,07,07,19.30
2015,07,18,07,08,19.30
2015,07,18,07,09,19.30
2015,07,18,07,10,19.30
2015,07,18,07,11,19.30
2015,07,18,07,12,19.30
2015,07,18,07,13,19.40
2015,07,18,07,14,19.40
2015,07,18,07,15,19.40
2015,07,18,07,16,19.40
2015,07,18,07,17,19.40
2015,07,18,07,18,19.40
2015,07,18,07,19,19.50
2015,07,18,07,20,19.50
2015,07,18,07,21,19.60
2015,07,18,07,22,19.60
2015,07,18,07,23,19.60
2015,07,18,07,24,19.60
2015,07,18,07,25,19.70
2015,07,18,07,26,19.70
2015,07,18,07,27,19.70
2015,07,18,07,28,19.70
2015,07,18,07,29,19.70
2015,07,18,07,30,19.80
2015,07,18,07,31,19.80
2015,07,18,07,32,19.80
2015,07,18,07,33,19.90
2015,07,18,07,34,19.90
2015,07,18,07,35,19.90
2015,07,18,07,36,20.00
2015,07,18,07,37,20.00
2015,07,18,07,38,20.10
2015,07,18,07,39,20.10
2015,07,18,07,40,20.10
2015,07,18,07,41,20.10
2015,07,18,07,42,20.20
2015,07,18,07,43,20.20
2015,07,18,07,44,20.20
2015,07,18,07,45,20.20
2015,07,18,07,46,20.30
2015,07,18,07,47,20.30
2015,07,18,07,48,20.30
2015,07,18,07,49,20.30
2015,07,18,07,50,20.30
2015,07,18,07,51,20.40
2015,07,18,07,52,20.40
2015,07,18,07,53,20.40
2015,07,18,07,54,20.50
2015,07,18,07,55,20.50
2015,07,18,07,56,20.60
2015,07,18,07,57,20.60
2015,07,18,07,58,20.60
2015,07,18,07,59,20.60
2015,07,18,08,00,20.70
2015,07,18,08,01,20.70
2015,07,18,08,02,20.70
2015,07,18,08,03,20.70
2015,07,18,08,04,20.80
2015,07,18,08,05,20.80
2015,07,18,08,06,20.80
2015,07,18,08,07,20.80
2015,07,18,08,08,20.80
2015,07,18,08,09,20.80
2015,07,18,08,10,20.90
2015,07,18,08,11,20.90
2015,07,18,08,12,20.90
2015,07,18,08,13,20.90
2015,07,18,08,14,20.90
2015,07,18,08,15,20.90
2015,07,18,08,16,21.00
2015,07,18,08,17,21.00
2015,07,18,08,18,21.00
2015,07,18,08,19,21.00
2015,07,18,08,20,21.10
2015,07,18,08,21,21.10
2015,07,18,08,22,21.10
2015,07,18,08,23,21.10
2015,07,18,08,24,21.00
2015,07,18,08,25,21.00
2015,07,18,08,26,21.00
2015,07,18,08,27,20.90
2015,07,18,08,28,20.90
2015,07,18,08,29,20.90
2015,07,18,08,30,20.90
2015,07,18,08,31,20.90
2015,07,18,08,32,21.00
2015,07,18,08,33,21.00
2015,07,18,08,34,21.00
2015,07,18,08,35,21.10
2015,07,18,08,36,21.10
2015,07,18,08,37,21.10
2015,07,18,08,38,21.10
2015,07,18,08,39,21.10
2015,07,18,08,40,21.10
2015,07,18,08,41,21.10
2015,07,18,08,42,21.10
2015,07,18,08,43,21.20
2015,07,18,08,44,21.20
2015,07,18,08,45,21.20
2015,07,18,08,46,21.20
2015,07,18,08,47,21.20
2015,07,18,08,48,21.20
2015,07,18,08,49,21.20
2015,07,18,08,50,21.10
2015,07,18,08,51,21.10
2015,07,18,08,52,21.00
2015,07,18,08,53,21.00
2015,07,18,08,54,21.00
2015,07,18,08,55,21.10
2015,07,18,08,56,21.10
2015,07,18,08,57,21.10
2015,07,18,08,58,21.20
2015,07,18,08,59,21.30
2015,07,18,09,00,21.30
2015,07,18,09,01,21.30
2015,07,18,09,02,21.30
2015,07,18,09,03,21.30
2015,07,18,09,04,21.30
2015,07,18,09,05,21.40
2015,07,18,09,06,21.40
2015,07,18,09,07,21.50
2015,07,18,09,08,21.50
2015,07,18,09,09,21.50
2015,07,18,09,10,21.50
2015,07,18,09,11,21.50
2015,07,18,09,12,21.40
2015,07,18,09,13,21.40
2015,07,18,09,14,21.40
2015,07,18,09,15,21.40
2015,07,18,09,16,21.40
2015,07,18,09,17,21.40
2015,07,18,09,18,21.50
2015,07,18,09,19,21.60
2015,07,18,09,20,21.60
2015,07,18,09,21,21.60
2015,07,18,09,22,21.70
2015,07,18,09,23,21.70
2015,07,18,09,24,21.80
2015,07,18,09,25,21.80
2015,07,18,09,26,21.80
2015,07,18,09,27,21.90
2015,07,18,09,28,21.90
2015,07,18,09,29,21.90
2015,07,18,09,30,21.90
2015,07,18,09,31,21.90
2015,07,18,09,32,21.90
2015,07,18,09,33,22.00
2015,07,18,09,34,22.00
2015,07,18,09,35,22.00
2015,07,18,09,36,22.10
2015,07,18,09,37,22.10
2015,07,18,09,38,22.20
2015,07,18,09,39,22.20
2015,07,18,09,40,22.20
2015,07,18,09,41,22.20
2015,07,18,09,42,22.20
2015,07,18,09,43,22.30
2015,07,18,09,44,22.40
2015,07,18,09,45,22.40
2015,07,18,09,46,22.50
2015,07,18,09,47,22.50
2015,07,18,09,48,22.60
2015,07,18,09,49,22.60
2015,07,18,09,50,22.70
2015,07,18,09,51,22.70
2015,07,18,09,52,22.70
2015,07,18,09,53,22.70
2015,07,18,09,54,22.70
2015,07,18,09,55,22.70
2015,07,18,09,56,22.70
2015,07,18,09,57,22.70
2015,07,18,09,58,22.70
2015,07,18,09,59,22.70
2015,07,18,10,00,22.70
2015,07,18,10,01,22.70
2015,07,18,10,02,22.70
2015,07,18,10,03,22.70
2015,07,18,10,04,22.80
2015,07,18,10,05,22.80
2015,07,18,10,06,22.90
2015,07,18,10,07,22.90
2015,07,18,10,08,23.00
2015,07,18,10,09,23.00
2015,07,18,10,10,23.10
2015,07,18,10,11,23.10
2015,07,18,10,12,23.10
2015,07,18,10,13,23.20
2015,07,18,10,14,23.20
2015,07,18,10,15,23.30
2015,07,18,10,16,23.30
2015,07,18,10,17,23.30
2015,07,18,10,18,23.30
2015,07,18,10,19,23.30
2015,07,18,10,20,23.20
2015,07,18,10,21,23.20
2015,07,18,10,22,23.30
2015,07,18,10,23,23.30
2015,07,18,10,24,23.30
2015,07,18,10,25,23.30
2015,07,18,10,26,23.20
2015,07,18,10,27,23.20
2015,07,18,10,28,23.20
2015,07,18,10,29,23.20
2015,07,18,10,30,23.20
2015,07,18,10,31,23.30
2015,07,18,10,32,23.30
2015,07,18,10,33,23.40
2015,07,18,10,34,23.40
2015,07,18,10,35,23.40
2015,07,18,10,36,23.40
2015,07,18,10,37,23.40
2015,07,18,10,38,23.30
2015,07,18,10,39,23.30
2015,07,18,10,40,23.30
2015,07,18,10,41,23.30
2015,07,18,10,42,23.30
2015,07,18,10,43,23.40
2015,07,18,10,44,23.40
2015,07,18,10,45,23.50
2015,07,18,10,46,23.50
2015,07,18,10,47,23.60
2015,07,18,10,48,23.60
2015,07,18,10,49,23.60
2015,07,18,10,50,23.60
2015,07,18,10,51,23.60
2015,07,18,10,52,23.60
2015,07,18,10,53,23.60
2015,07,18,10,54,23.60
2015,07,18,10,55,23.60
2015,07,18,10,56,23.50
2015,07,18,10,57,23.60
2015,07,18,10,58,23.50
2015,07,18,10,59,23.50
2015,07,18,11,00,23.40
2015,07,18,11,01,23.30
2015,07,18,11,02,23.30
2015,07,18,11,03,23.30
2015,07,18,11,04,23.20
2015,07,18,11,05,23.20
2015,07,18,11,06,23.20
2015,07,18,11,07,23.20
2015,07,18,11,08,23.20
2015,07,18,11,09,23.20
2015,07,18,11,10,23.20
2015,07,18,11,11,23.30
2015,07,18,11,12,23.30
2015,07,18,11,13,23.30
2015,07,18,11,14,23.30
2015,07,18,11,15,23.30
2015,07,18,11,16,23.20
2015,07,18,11,17,23.10
2015,07,18,11,18,23.10
2015,07,18,11,19,23.10
2015,07,18,11,20,23.10
2015,07,18,11,21,23.20
2015,07,18,11,22,23.20
2015,07,18,11,23,23.20
2015,07,18,11,24,23.30
2015,07,18,11,25,23.40
2015,07,18,11,26,23.50
2015,07,18,11,27,23.60
2015,07,18,11,28,23.60
2015,07,18,11,29,23.60
2015,07,18,11,30,23.60
2015,07,18,11,31,23.60
2015,07,18,11,32,23.50
2015,07,18,11,33,23.50
2015,07,18,11,34,23.40
2015,07,18,11,35,23.20
2015,07,18,11,36,23.20
2015,07,18,11,37,23.10
2015,07,18,11,38,23.10
2015,07,18,11,39,23.10
2015,07,18,11,40,23.10
2015,07,18,11,41,23.00
2015,07,18,11,42,23.00
2015,07,18,11,43,22.90
2015,07,18,11,44,22.90
2015,07,18,11,45,22.90
2015,07,18,11,46,22.90
2015,07,18,11,47,22.90
2015,07,18,11,48,22.90
2015,07,18,11,49,23.00
2015,07,18,11,50,23.00
2015,07,18,11,51,23.10
2015,07,18,11,52,23.30
2015,07,18,11,53,23.40
2015,07,18,11,54,23.50
2015,07,18,11,55,23.60
2015,07,18,11,56,23.80
2015,07,18,11,57,23.90
2015,07,18,11,58,24.00
2015,07,18,11,59,24.10
2015,07,18,12,00,24.30
2015,07,18,12,01,24.30
2015,07,18,12,02,24.30
2015,07,18,12,03,24.30
2015,07,18,12,04,24.40
2015,07,18,12,05,24.40
2015,07,18,12,06,24.50
2015,07,18,12,07,24.50
2015,07,18,12,08,24.60
2015,07,18,12,09,24.60
2015,07,18,12,10,24.70
2015,07,18,12,11,24.80
2015,07,18,12,12,24.80
2015,07,18,12,13,24.90
2015,07,18,12,14,24.80
2015,07,18,12,15,24.80
2015,07,18,12,16,24.80
2015,07,18,12,17,24.80
2015,07,18,12,18,24.80
2015,07,18,12,19,24.70
2015,07,18,12,20,24.70
2015,07,18,12,21,24.70
2015,07,18,12,22,24.70
2015,07,18,12,23,24.60
2015,07,18,12,24,24.50
2015,07,18,12,25,24.50
2015,07,18,12,26,24.40
2015,07,18,12,27,24.30
2015,07,18,12,28,24.20
2015,07,18,12,29,24.20
2015,07,18,12,30,24.10
2015,07,18,12,31,24.10
2015,07,18,12,32,24.10
2015,07,18,12,33,24.00
2015,07,18,12,34,23.90
2015,07,18,12,35,23.80
2015,07,18,12,36,23.80
2015,07,18,12,37,23.70
2015,07,18,12,38,23.70
2015,07,18,12,39,23.60
2015,07,18,12,40,23.60
2015,07,18,12,41,23.50
2015,07,18,12,42,23.40
2015,07,18,12,43,23.40
2015,07,18,12,44,23.30
2015,07,18,12,45,23.30
2015,07,18,12,46,23.40
2015,07,18,12,47,23.40
2015,07,18,12,48,23.40
2015,07,18,12,49,23.40
2015,07,18,12,50,23.40
2015,07,18,12,51,23.40
2015,07,18,12,52,23.40
2015,07,18,12,53,23.40
2015,07,18,12,54,23.40
2015,07,18,12,55,23.30
2015,07,18,12,56,23.30
2015,07,18,12,57,23.30
2015,07,18,12,58,23.30
2015,07,18,12,59,23.30
2015,07,18,13,00,23.30
2015,07,18,13,01,23.30
2015,07,18,13,02,23.30
2015,07,18,13,03,23.40
2015,07,18,13,04,23.40
2015,07,18,13,05,23.50
2015,07,18,13,06,23.60
2015,07,18,13,07,23.70
2015,07,18,13,08,23.70
2015,07,18,13,09,23.80
2015,07,18,13,10,23.90
2015,07,18,13,11,24.00
2015,07,18,13,12,24.10
2015,07,18,13,13,24.30
2015,07,18,13,14,24.40
2015,07,18,13,15,24.40
2015,07,18,13,16,24.50
2015,07,18,13,17,24.50
2015,07,18,13,18,24.50
2015,07,18,13,19,24.50
2015,07,18,13,20,24.60
2015,07,18,13,21,24.60
2015,07,18,13,22,24.70
2015,07,18,13,23,24.70
2015,07,18,13,24,24.60
2015,07,18,13,25,24.60
2015,07,18,13,26,24.50
2015,07,18,13,27,24.50
2015,07,18,13,28,24.60
2015,07,18,13,29,24.60
2015,07,18,13,30,24.60
2015,07,18,13,31,24.60
2015,07,18,13,32,24.70
2015,07,18,13,33,24.80
2015,07,18,13,34,24.90
2015,07,18,13,35,24.90
2015,07,18,13,36,25.00
2015,07,18,13,37,25.10
2015,07,18,13,38,25.20
2015,07,18,13,39,25.30
2015,07,18,13,40,25.40
2015,07,18,13,41,25.40
2015,07,18,13,42,25.40
2015,07,18,13,43,25.40
2015,07,18,13,44,25.30
2015,07,18,13,45,25.30
2015,07,18,13,46,25.20
2015,07,18,13,47,25.20
2015,07,18,13,48,25.10
2015,07,18,13,49,25.10
2015,07,18,13,50,25.10
2015,07,18,13,51,25.00
2015,07,18,13,52,24.90
2015,07,18,13,53,24.90
2015,07,18,13,54,24.90
2015,07,18,13,55,24.90
2015,07,18,13,56,25.00
2015,07,18,13,57,25.10
2015,07,18,13,58,25.20
2015,07,18,13,59,25.30
2015,07,18,14,00,25.40
2015,07,18,14,01,25.50
2015,07,18,14,02,25.60
2015,07,18,14,03,25.70
2015,07,18,14,04,25.70
2015,07,18,14,05,25.80
2015,07,18,14,06,25.80
2015,07,18,14,07,25.80
2015,07,18,14,08,25.80
2015,07,18,14,09,25.90
2015,07,18,14,10,26.00
2015,07,18,14,11,26.10
2015,07,18,14,12,26.20
2015,07,18,14,13,26.20
2015,07,18,14,14,26.30
2015,07,18,14,15,26.30
2015,07,18,14,16,26.40
2015,07,18,14,17,26.40
2015,07,18,14,18,26.50
2015,07,18,14,19,26.60
2015,07,18,14,20,26.70
2015,07,18,14,21,26.80
2015,07,18,14,22,27.00
2015,07,18,14,23,27.10
2015,07,18,14,24,27.30
2015,07,18,14,25,27.40
2015,07,18,14,26,27.50
2015,07,18,14,27,27.60
2015,07,18,14,28,27.70
2015,07,18,14,29,27.80
2015,07,18,14,30,27.90
2015,07,18,14,31,27.80
2015,07,18,14,32,27.70
2015,07,18,14,33,27.70
2015,07,18,14,34,27.60
2015,07,18,14,35,27.60
2015,07,18,14,36,27.60
2015,07,18,14,37,27.60
2015,07,18,14,38,27.60
2015,07,18,14,39,27.60
2015,07,18,14,40,27.60
2015,07,18,14,41,27.60
2015,07,18,14,42,27.50
2015,07,18,14,43,27.50
2015,07,18,14,44,27.60
2015,07,18,14,45,27.60
2015,07,18,14,46,27.70
2015,07,18,14,47,27.80
2015,07,18,14,48,27.90
2015,07,18,14,49,28.00
2015,07,18,14,50,28.10
2015,07,18,14,51,28.20
2015,07,18,14,52,28.20
2015,07,18,14,53,28.20
2015,07,18,14,54,28.30
2015,07,18,14,55,28.30
2015,07,18,14,56,28.30
2015,07,18,14,57,28.40
2015,07,18,14,58,28.30
2015,07,18,14,59,28.30
2015,07,18,15,00,28.30
2015,07,18,15,01,28.30
2015,07,18,15,02,28.40
2015,07,18,15,03,28.40
2015,07,18,15,04,28.50
2015,07,18,15,05,28.60
2015,07,18,15,06,28.70
2015,07,18,15,07,28.70
2015,07,18,15,08,28.70
2015,07,18,15,09,28.60
2015,07,18,15,10,28.50
2015,07,18,15,11,28.30
2015,07,18,15,12,28.10
2015,07,18,15,13,28.00
2015,07,18,15,14,27.80
2015,07,18,15,15,27.70
2015,07,18,15,16,27.50
2015,07,18,15,17,27.40
2015,07,18,15,18,27.30
2015,07,18,15,19,27.20
2015,07,18,15,20,27.10
2015,07,18,15,21,27.00
2015,07,18,15,22,26.90
2015,07,18,15,23,26.90
2015,07,18,15,24,26.80
2015,07,18,15,25,26.80
2015,07,18,15,26,26.80
2015,07,18,15,27,26.80
2015,07,18,15,28,26.80
2015,07,18,15,29,26.90
2015,07,18,15,30,27.00
2015,07,18,15,31,27.10
2015,07,18,15,32,27.10
2015,07,18,15,33,27.10
2015,07,18,15,34,27.10
2015,07,18,15,35,27.10
2015,07,18,15,36,27.20
2015,07,18,15,37,27.20
2015,07,18,15,38,27.20
2015,07,18,15,39,27.30
2015,07,18,15,40,27.20
2015,07,18,15,41,27.20
2015,07,18,15,42,27.20
2015,07,18,15,43,27.20
2015,07,18,15,44,27.10
2015,07,18,15,45,27.10
2015,07,18,15,46,27.00
2015,07,18,15,47,26.90
2015,07,18,15,48,26.90
2015,07,18,15,49,26.80
2015,07,18,15,50,26.80
2015,07,18,15,51,26.80
2015,07,18,15,52,26.70
2015,07,18,15,53,26.70
2015,07,18,15,54,26.70
2015,07,18,15,55,26.70
2015,07,18,15,56,26.70
2015,07,18,15,57,26.80
2015,07,18,15,58,26.80
2015,07,18,15,59,26.80
2015,07,18,16,00,26.80
2015,07,18,16,01,26.80
2015,07,18,16,02,26.80
2015,07,18,16,03,26.90
2015,07,18,16,04,26.80
2015,07,18,16,05,26.80
2015,07,18,16,06,26.80
2015,07,18,16,07,26.80
2015,07,18,16,08,26.80
2015,07,18,16,09,26.80
2015,07,18,16,10,26.80
2015,07,18,16,11,26.90
2015,07,18,16,12,27.00
2015,07,18,16,13,27.10
2015,07,18,16,14,27.20
2015,07,18,16,15,27.30
2015,07,18,16,16,27.40
2015,07,18,16,17,27.50
2015,07,18,16,18,27.60
2015,07,18,16,19,27.80
2015,07,18,16,20,27.90
2015,07,18,16,21,28.10
2015,07,18,16,22,28.20
2015,07,18,16,23,28.30
2015,07,18,16,24,28.40
2015,07,18,16,25,28.50
2015,07,18,16,26,28.60
2015,07,18,16,27,28.70
2015,07,18,16,28,28.90
2015,07,18,16,29,29.00
2015,07,18,16,30,29.20
2015,07,18,16,31,29.30
2015,07,18,16,32,29.40
2015,07,18,16,33,29.50
2015,07,18,16,34,29.50
2015,07,18,16,35,29.60
2015,07,18,16,36,29.60
2015,07,18,16,37,29.50
2015,07,18,16,38,29.50
2015,07,18,16,39,29.40
2015,07,18,16,40,29.30
2015,07,18,16,41,29.20
2015,07,18,16,42,29.20
2015,07,18,16,43,29.10
2015,07,18,16,44,29.10
2015,07,18,16,45,29.00
2015,07,18,16,46,28.90
2015,07,18,16,47,28.80
2015,07,18,16,48,28.70
2015,07,18,16,49,28.70
2015,07,18,16,50,28.70
2015,07,18,16,51,28.60
2015,07,18,16,52,28.60
2015,07,18,16,53,28.60
2015,07,18,16,54,28.60
2015,07,18,16,55,28.60
2015,07,18,16,56,28.50
2015,07,18,16,57,28.40
2015,07,18,16,58,28.40
2015,07,18,16,59,28.50
2015,07,18,17,00,28.50
2015,07,18,17,01,28.60
2015,07,18,17,02,28.70
2015,07,18,17,03,28.70
2015,07,18,17,04,28.80
2015,07,18,17,05,28.80
2015,07,18,17,06,28.90
2015,07,18,17,07,29.00
2015,07,18,17,08,29.00
2015,07,18,17,09,29.10
2015,07,18,17,10,29.10
2015,07,18,17,11,29.10
2015,07,18,17,12,29.20
2015,07,18,17,13,29.20
2015,07,18,17,14,29.30
2015,07,18,17,15,29.30
2015,07,18,17,16,29.30
2015,07,18,17,17,29.30
2015,07,18,17,18,29.40
2015,07,18,17,19,29.30